Terminal Aerodrome Forecast
Issued by NWS

Home | Current Version | Previous Version | Text Only | Print | Product List | Glossary On
Versions: 1 2 3 4 5 6 7 8 9 10 11 12 13 14 15 16 17 18 19 20 21 22 23 24 25 26 27 28 29 30 31 32 33 34 35 36 37 38 39 40 41 42 43 44 45 46 47 48
000
FTAK31 PANC 252338 AAA
TAFASN
TAF AMD
PASN 252338Z 2600/2624 36018G28KT P6SM -RA SCT008 OVC015
      TEMPO 2600/2603 36018KT 6SM -RA BR SCT008 OVC015
     FM260700 01015KT P6SM OVC015=

USA.gov is the U.S. government's official web portal to all federal, state and local government web resources and services.